Regional Weather Roundup
Issued by NWS

Home | Current Version | Previous Version | Text Only | Print | Product List | Glossary On
Versions: 1 2 3 4 5 6 7 8 9 10 11 12 13 14 15 16 17 18 19 20 21 22 23 24 25 26 27
000
ASUS45 KSLC 130910
RWRUT

UTAH REGIONAL WEATHER ROUNDUP
NATIONAL WEATHER SERVICE SALT LAKE CITY UT
200 AM MST WED DEC 13 2017

UTZ001>011-023>025-131000-

NORTHERN UTAH

CITY           SKY/WX    TMP DP  RH WIND       PRES   REMARKS
BRIGHAM CITY   CLOUDY    22  19  89 CALM      30.40F VSB 1
HILL AFB       PTCLDY    21  19  93 CALM      30.35F FOG
LOGAN          CLOUDY    20  13  74 N5        30.39S WCI  13
OGDEN          CLOUDY    23  21  92 CALM      30.36F FOG
SALT LAKE CITY FOG       24  23  96 W3        30.38F VSB 1/2
TOOELE VALLEY  FOG       23  21  93 NW3       30.41R VSB 1/4
WENDOVER       PTCLDY     9   6  88 CALM      30.38F
HEBER CITY       N/A     18   9  68 CALM      30.32F
WEST JORDAN    CLOUDY   N/A N/A N/A NW5       30.38R VSB 1/2

$$

UTZ011>015-024>027-131000-

CENTRAL/NORTHEAST UTAH

CITY           SKY/WX    TMP DP  RH WIND       PRES   REMARKS
PROVO AIRPORT  HAZE      21  19  92 E5        30.38F VSB<1/4 WCI  15
MOAB/CANYONLAN MOCLDY    20  -2  38 CALM      30.27F
DELTA          MOCLDY    14   9  79 CALM      30.35F
PRICE          PTCLDY    24   1  36 CALM      30.25F
RICHFIELD      CLEAR     14   1  57 CALM      30.35F
ROOSEVELT      CLOUDY    16   9  73 CALM      30.31F
VERNAL         CLOUDY    18   8  65 W6        30.28F WCI  10

$$

UTZ013>016-019>022-027-131000-

SOUTHERN UTAH

CITY           SKY/WX    TMP DP  RH WIND       PRES   REMARKS
BRYCE CANYON   PTCLDY    17   4  56 W10       30.35F WCI   5
CEDAR CITY     MOCLDY    19   7  59 E3        30.31F
MILFORD        MOCLDY    13   5  70 N3        30.34S
ST GEORGE      MOSUNNY   36   3  25 S6        30.25S WCI  31
HANKSVILLE     MOCLDY    19   0  42 CALM      30.31S
KANAB          CLEAR     28   1  31 N5        30.30F WCI  23
BLANDING         N/A     28   3  34 CALM      30.33S

$$

REGIONAL REPORTS     COLORADO/ARIZONA

CITY           SKY/WX    TMP DP  RH WIND       PRES   REMARKS
CRAIG, CO      CLOUDY     9   5  84 CALM      30.27F
GRAND JUNCTION CLOUDY    26  10  50 E3        30.29S
RIFLE, CO      CLOUDY    22  10  60 CALM      30.31F
MONTROSE, CO   CLOUDY    21   9  59 SE8       30.32F WCI  11
CORTEZ, CO     CLOUDY    14   3  61 E6        30.27F WCI   5
COLORADO CITY    N/A     27   3  36 SE5       30.29F WCI  21
PAGE, AZ       MOCLDY    32  11  41 CALM      30.27F
GRAND CANYON   MOCLDY    18   4  54 NE6       30.30F WCI  10
KINGMAN, AZ    PTCLDY    36   4  26 E6        30.17F WCI  31
FLAGSTAFF, AZ  MOCLDY    15  -3  44 CALM      30.28F

$$

REGIONAL REPORTS    NEVADA/IDAHO/WYOMING

CITY           SKY/WX    TMP DP  RH WIND       PRES   REMARKS
LAS VEGAS, NV  CLEAR     46   2  16 SW3       30.15F
ELY, NY        PTCLDY    16   1  51 S13       30.35F WCI   2
ELKO, NV       CLOUDY    13  10  88 NE5       30.38F WCI   5
POCATELLO, ID  FOG       20  18  92 CALM      30.38F VSB 1
BURLEY, ID     FOG       21  17  84 S6        30.39F VSB 1/2 WCI  13
FORT BRIDGER,    N/A     37   2  23 W13       30.30S WCI  28
EVANSTON, WY   CLOUDY    28  12  51 SW9       30.30S WCI  19
ROCK SPRINGS,  CLOUDY    32   2  27 SW10      30.23F WCI  24

$$




USA.gov is the U.S. government's official web portal to all federal, state and local government web resources and services.